This is the latest recevied weather packets stored in our database for station/object DO7FJK-87. If no packets are shown the sender has not sent any weather packets the latest 1 day(s).
| Time | Temp. | Humidity | Pressure | Rain* | Wind** | Luminosity | Snow |
|---|---|---|---|---|---|---|---|
| 1777981800 | 13.89° C | 78% | - | - | 2.24 m/s, 0° | - | - |
| 1777981200 | 13.89° C | 79% | - | - | 2.68 m/s, 0° | - | - |
| 1777980600 | 13.33° C | 81% | - | - | 2.24 m/s, 0° | - | - |
| 1777980000 | 13.33° C | 81% | - | - | 0 m/s | - | - |
| 1777979400 | 12.78° C | 83% | - | - | 2.24 m/s, 0° | - | - |
| 1777978800 | 13.33° C | 82% | - | - | 2.24 m/s, 0° | - | - |
| 1777978200 | 12.78° C | 83% | - | - | 0.89 m/s, 0° | - | - |
| 1777977600 | 12.78° C | 84% | - | - | 2.68 m/s, 0° | - | - |
| 1777977000 | 12.22° C | 86% | - | - | 1.79 m/s, 0° | - | - |
| 1777976400 | 11.67° C | 85% | - | - | 2.24 m/s, 0° | - | - |
| 1777975800 | 12.22° C | 86% | - | - | 2.24 m/s, 0° | - | - |
| 1777975200 | 12.22° C | 87% | - | - | 1.79 m/s, 0° | - | - |
| 1777974600 | 11.67° C | 88% | - | - | 0 m/s | - | - |
| 1777974000 | 11.11° C | 88% | - | - | 2.24 m/s, 0° | - | - |
| 1777973401 | 11.11° C | 88% | - | - | 2.24 m/s, 0° | - | - |
| 1777972800 | 11.11° C | 89% | - | - | 1.79 m/s, 0° | - | - |
| 1777972200 | 10.56° C | 89% | - | - | 1.79 m/s, 0° | - | - |
| 1777971600 | 10.56° C | 89% | - | - | 1.79 m/s, 0° | - | - |
| 1777971000 | 10.56° C | 89% | - | - | 0.89 m/s, 0° | - | - |
| 1777970401 | 10.56° C | 89% | - | - | 0 m/s | - | - |
| 1777969800 | 10.56° C | 89% | - | - | 0.89 m/s, 0° | - | - |
| 1777969200 | 10.56° C | 89% | - | - | 1.79 m/s, 0° | - | - |
| 1777968600 | 10° C | 89% | - | - | 1.79 m/s, 0° | - | - |
| 1777968000 | 10° C | 89% | - | - | 1.79 m/s, 0° | - | - |
| 1777967401 | 10° C | 90% | - | - | 0 m/s | - | - |
* Rain since midnight (hover to see other rain measurements)
** Current wind speed in m/s (hover to see current wind gust speed)